User: anonymous   Login
Location: Natural Bridges National Monument
(37.6093°N, 109.9767°W)
Time: 23:40:35
(UTC-07:00)
Language:

USA 32 - Orbit

View from above orbital plane
View from above orbital plane
View from above satellite
View from above satellite

Ground track
Ground track

The orbit data is extracted from the following two-line orbital elements,

1 19460U 88078A   14347.28204572 0.00000260  00000-0  94686-4 0    08
2 19460  84.9876  34.2088 0002668 185.6562 174.3437 14.33245354    07
Epoch (UTC): 13 December 2014 06:46:08
Eccentricity: 0.0002668
inclination: 84.9876°
perigee height: 779 km
apogee height: 783 km
right ascension of ascending node: 34.2088°
argument of perigee: 185.6562°
revolutions per day: 14.33245354
mean anomaly at epoch: 174.3437°
orbit number at epoch: 0

The dashed part of the orbit path shows where the satellite is in the earth's shadow,  

DLR